contact: severine.martini@mio.osupytheas.fr, dominique.lefevre@mio.osupytheas.fr
Project:EMSO Ligure-ouest http://www.emso-fr.org/EMSO-France
Sensor Microcat Sea-Bird SBE37 SMP,  Serial 57510 
DOI : "https://doi.org/10.17882/97948" 
Title:EMSO Ligure Ouest : Data Bathybot capteur Microcat - deploiement 2023-04-28
Datetime,Profondeur,Latitude,Longitude,Temperature,Conductivite,Pression,Salinite
time,m,degree_north,degree_east,degree_C,S/m,db,PSU 
2023-09-26T00:00:49,2420,42.8014,5.9826,13.2972,4.59963,2453.582,38.4928
2023-09-26T00:03:49,2420,42.8014,5.9826,13.2970,4.59951,2453.582,38.4919
2023-09-26T00:06:49,2420,42.8014,5.9826,13.2970,4.59938,2453.582,38.4906
2023-09-26T00:09:49,2420,42.8014,5.9826,13.2972,4.60262,2453.619,38.5210
2023-09-26T00:12:49,2420,42.8014,5.9826,13.2966,4.60086,2453.596,38.5049
2023-09-26T00:15:49,2420,42.8014,5.9826,13.2970,4.60073,2453.604,38.5034
2023-09-26T00:18:49,2420,42.8014,5.9826,13.3821,4.60075,2453.582,38.4193
2023-09-26T00:21:49,2420,42.8014,5.9826,13.3702,4.60186,2453.627,38.4415
2023-09-26T00:24:49,2420,42.8014,5.9826,13.3012,4.60093,2453.582,38.5011
2023-09-26T00:27:50,2420,42.8014,5.9826,13.3086,4.60288,2453.537,38.5121
2023-09-26T00:30:49,2420,42.8014,5.9826,13.3376,4.60091,2453.596,38.4647
2023-09-26T00:33:49,2420,42.8014,5.9826,13.3640,4.60234,2453.596,38.4522
2023-09-26T00:36:49,2420,42.8014,5.9826,13.3088,4.60235,2453.596,38.5069
2023-09-26T00:39:49,2420,42.8014,5.9826,13.4011,4.60027,2453.559,38.3959
2023-09-26T00:42:49,2420,42.8014,5.9826,13.3584,4.60056,2453.619,38.4408
2023-09-26T00:45:49,2420,42.8014,5.9826,13.3112,4.60025,2453.574,38.4848
2023-09-26T00:48:49,2420,42.8014,5.9826,13.3099,4.60070,2453.588,38.4903
2023-09-26T00:51:49,2420,42.8014,5.9826,13.3429,4.60052,2453.574,38.4559
2023-09-26T00:54:49,2420,42.8014,5.9826,13.3225,4.60078,2453.596,38.4785
2023-09-26T00:57:49,2420,42.8014,5.9826,13.3496,4.60090,2453.582,38.4527
2023-09-26T01:00:49,2420,42.8014,5.9826,13.3624,4.60026,2453.574,38.4341
2023-09-26T01:03:49,2420,42.8014,5.9826,13.3156,4.60022,2453.596,38.4801
2023-09-26T01:06:49,2420,42.8014,5.9826,13.3187,4.60039,2453.596,38.4786
2023-09-26T01:09:49,2420,42.8014,5.9826,13.3054,4.60141,2453.641,38.5014
2023-09-26T01:12:49,2420,42.8014,5.9826,13.3054,4.60132,2453.604,38.5006
2023-09-26T01:15:49,2420,42.8014,5.9826,13.2978,4.60322,2453.604,38.5261
2023-09-26T01:18:49,2420,42.8014,5.9826,13.3034,4.60085,2453.604,38.4981
2023-09-26T01:21:49,2420,42.8014,5.9826,13.3081,4.60336,2453.596,38.5173
2023-09-26T01:24:49,2420,42.8014,5.9826,13.3029,4.60223,2453.596,38.5117
2023-09-26T01:27:49,2420,42.8014,5.9826,13.3100,4.60586,2453.619,38.5389
2023-09-26T01:30:49,2420,42.8014,5.9826,13.3046,4.60086,2453.627,38.4970
2023-09-26T01:33:49,2420,42.8014,5.9826,13.2976,4.60263,2453.604,38.5207
2023-09-26T01:36:49,2420,42.8014,5.9826,13.3022,4.60127,2453.596,38.5033
2023-09-26T01:39:49,2420,42.8014,5.9826,13.3018,4.60268,2453.627,38.5170
2023-09-26T01:42:49,2420,42.8014,5.9826,13.3015,4.60150,2453.604,38.5062
2023-09-26T01:45:49,2420,42.8014,5.9826,13.3261,4.60179,2453.582,38.4845
2023-09-26T01:48:49,2420,42.8014,5.9826,13.2980,4.60140,2453.641,38.5087
2023-09-26T01:51:49,2420,42.8014,5.9826,13.3499,4.60013,2453.604,38.4452
2023-09-26T01:54:49,2420,42.8014,5.9826,13.3010,4.60010,2453.604,38.4935
2023-09-26T01:57:49,2420,42.8014,5.9826,13.3336,4.59965,2453.619,38.4569
2023-09-26T02:00:49,2420,42.8014,5.9826,13.3238,4.59994,2453.619,38.4693
2023-09-26T02:03:49,2420,42.8014,5.9826,13.3554,4.59995,2453.604,38.4380
2023-09-26T02:06:49,2420,42.8014,5.9826,13.3069,4.59905,2453.627,38.4777
2023-09-26T02:09:49,2420,42.8014,5.9826,13.3176,4.59999,2453.582,38.4760
2023-09-26T02:12:49,2420,42.8014,5.9826,13.3036,4.60003,2453.641,38.4902
2023-09-26T02:15:49,2420,42.8014,5.9826,13.2993,4.59952,2453.641,38.4897
2023-09-26T02:18:49,2420,42.8014,5.9826,13.3264,4.59961,2453.641,38.4636
2023-09-26T02:21:49,2420,42.8014,5.9826,13.3062,4.59979,2453.604,38.4853
2023-09-26T02:24:49,2420,42.8014,5.9826,13.3103,4.59949,2453.664,38.4784
2023-09-26T02:27:49,2420,42.8014,5.9826,13.3007,4.60001,2453.627,38.4929
2023-09-26T02:30:49,2420,42.8014,5.9826,13.2998,4.60075,2453.604,38.5007
2023-09-26T02:33:49,2420,42.8014,5.9826,13.3022,4.59982,2453.664,38.4896
2023-09-26T02:36:49,2420,42.8014,5.9826,13.3236,4.59946,2453.627,38.4649
2023-09-26T02:39:49,2420,42.8014,5.9826,13.3296,4.59939,2453.627,38.4584
2023-09-26T02:42:49,2420,42.8014,5.9826,13.3114,4.59989,2453.627,38.4811
2023-09-26T02:45:49,2420,42.8014,5.9826,13.3422,4.60131,2453.627,38.4640
2023-09-26T02:48:49,2420,42.8014,5.9826,13.3414,4.60104,2453.641,38.4622
2023-09-26T02:51:49,2420,42.8014,5.9826,13.3096,4.60194,2453.627,38.5023
2023-09-26T02:54:49,2420,42.8014,5.9826,13.3035,4.60018,2453.664,38.4917
2023-09-26T02:57:49,2420,42.8014,5.9826,13.3034,4.59973,2453.649,38.4876
2023-09-26T03:00:50,2420,42.8014,5.9826,13.2994,4.59952,2453.619,38.4896
2023-09-26T03:03:49,2420,42.8014,5.9826,13.2978,4.60058,2453.672,38.5012
2023-09-26T03:06:49,2420,42.8014,5.9826,13.3000,4.59991,2453.627,38.4926
2023-09-26T03:09:49,2420,42.8014,5.9826,13.2977,4.59935,2453.649,38.4897
2023-09-26T03:12:49,2420,42.8014,5.9826,13.2979,4.59928,2453.672,38.4887
2023-09-26T03:15:49,2420,42.8014,5.9826,13.2992,4.59923,2453.664,38.4870
2023-09-26T03:18:49,2420,42.8014,5.9826,13.2991,4.59940,2453.627,38.4888
2023-09-26T03:21:49,2420,42.8014,5.9826,13.2982,4.59982,2453.672,38.4936
2023-09-26T03:24:49,2420,42.8014,5.9826,13.2978,4.59943,2453.641,38.4902
2023-09-26T03:27:49,2420,42.8014,5.9826,13.2975,4.59927,2453.657,38.4890
2023-09-26T03:30:49,2420,42.8014,5.9826,13.2976,4.59920,2453.672,38.4883
2023-09-26T03:33:49,2420,42.8014,5.9826,13.2970,4.59917,2453.649,38.4886
2023-09-26T03:36:49,2420,42.8014,5.9826,13.2983,4.59915,2453.635,38.4871
2023-09-26T03:39:49,2420,42.8014,5.9826,13.2978,4.59928,2453.649,38.4889
2023-09-26T03:42:49,2420,42.8014,5.9826,13.2982,4.59920,2453.649,38.4877
2023-09-26T03:45:49,2420,42.8014,5.9826,13.2986,4.60064,2453.627,38.5009
2023-09-26T03:48:49,2420,42.8014,5.9826,13.3001,4.59931,2453.687,38.4868
2023-09-26T03:51:49,2420,42.8014,5.9826,13.2985,4.59926,2453.672,38.4879
2023-09-26T03:54:49,2420,42.8014,5.9826,13.2979,4.59951,2453.672,38.4910
2023-09-26T03:57:49,2420,42.8014,5.9826,13.2982,4.59916,2453.672,38.4874
2023-09-26T04:00:49,2420,42.8014,5.9826,13.2970,4.59914,2453.672,38.4883
2023-09-26T04:03:49,2420,42.8014,5.9826,13.2983,4.59922,2453.635,38.4878
2023-09-26T04:06:49,2420,42.8014,5.9826,13.2970,4.59917,2453.672,38.4886
2023-09-26T04:09:49,2420,42.8014,5.9826,13.2978,4.59911,2453.649,38.4873
2023-09-26T04:12:49,2420,42.8014,5.9826,13.2977,4.59915,2453.695,38.4877
2023-09-26T04:15:49,2420,42.8014,5.9826,13.2975,4.59906,2453.672,38.4871
2023-09-26T04:18:49,2420,42.8014,5.9826,13.2978,4.59906,2453.672,38.4868
2023-09-26T04:21:49,2420,42.8014,5.9826,13.2970,4.59926,2453.695,38.4895
2023-09-26T04:24:49,2420,42.8014,5.9826,13.2973,4.59907,2453.672,38.4873
2023-09-26T04:27:49,2420,42.8014,5.9826,13.2975,4.59904,2453.672,38.4869
2023-09-26T04:30:49,2420,42.8014,5.9826,13.2975,4.59916,2453.672,38.4880
2023-09-26T04:33:49,2420,42.8014,5.9826,13.2968,4.59923,2453.687,38.4894
2023-09-26T04:36:49,2420,42.8014,5.9826,13.2975,4.59945,2453.672,38.4908
2023-09-26T04:39:49,2420,42.8014,5.9826,13.2977,4.59921,2453.672,38.4883
2023-09-26T04:42:49,2420,42.8014,5.9826,13.2972,4.59924,2453.649,38.4891
2023-09-26T04:45:49,2420,42.8014,5.9826,13.2978,4.59921,2453.649,38.4882
2023-09-26T04:48:49,2420,42.8014,5.9826,13.2977,4.59923,2453.657,38.4885
2023-09-26T04:51:49,2420,42.8014,5.9826,13.2975,4.59915,2453.695,38.4879
2023-09-26T04:54:49,2420,42.8014,5.9826,13.2981,4.59909,2453.657,38.4867
2023-09-26T04:57:49,2420,42.8014,5.9826,13.2977,4.59918,2453.672,38.4881
2023-09-26T05:00:50,2420,42.8014,5.9826,13.2993,4.59918,2453.695,38.4864
2023-09-26T05:03:49,2420,42.8014,5.9826,13.2993,4.59931,2453.672,38.4876
2023-09-26T05:06:49,2420,42.8014,5.9826,13.2979,4.59930,2453.695,38.4889
2023-09-26T05:09:49,2420,42.8014,5.9826,13.2985,4.59938,2453.672,38.4892
2023-09-26T05:12:49,2420,42.8014,5.9826,13.2981,4.59923,2453.649,38.4881
2023-09-26T05:15:49,2420,42.8014,5.9826,13.2984,4.59920,2453.664,38.4875
2023-09-26T05:18:49,2420,42.8014,5.9826,13.2979,4.59914,2453.695,38.4874
2023-09-26T05:21:49,2420,42.8014,5.9826,13.2977,4.59926,2453.695,38.4888
2023-09-26T05:24:49,2420,42.8014,5.9826,13.2972,4.59927,2453.657,38.4894
2023-09-26T05:27:49,2420,42.8014,5.9826,13.2972,4.59919,2453.649,38.4886
2023-09-26T05:30:49,2420,42.8014,5.9826,13.2973,4.59915,2453.672,38.4880
2023-09-26T05:33:49,2420,42.8014,5.9826,13.2976,4.59930,2453.687,38.4892
2023-09-26T05:36:49,2420,42.8014,5.9826,13.2981,4.59918,2453.672,38.4876
2023-09-26T05:39:49,2420,42.8014,5.9826,13.2975,4.59915,2453.672,38.4879
2023-09-26T05:42:49,2420,42.8014,5.9826,13.2977,4.59906,2453.695,38.4869
2023-09-26T05:45:49,2420,42.8014,5.9826,13.2977,4.59920,2453.657,38.4882
2023-09-26T05:48:49,2420,42.8014,5.9826,13.2977,4.59910,2453.649,38.4873
2023-09-26T05:51:49,2420,42.8014,5.9826,13.2973,4.59915,2453.649,38.4881
2023-09-26T05:54:49,2420,42.8014,5.9826,13.2974,4.59936,2453.649,38.4900
2023-09-26T05:57:49,2420,42.8014,5.9826,13.2985,4.59917,2453.672,38.4872
2023-09-26T06:00:49,2420,42.8014,5.9826,13.2978,4.59916,2453.649,38.4877
2023-09-26T06:03:49,2420,42.8014,5.9826,13.2977,4.59931,2453.695,38.4892
2023-09-26T06:06:49,2420,42.8014,5.9826,13.2973,4.59933,2453.702,38.4898
2023-09-26T06:09:49,2420,42.8014,5.9826,13.2970,4.59911,2453.635,38.4881
2023-09-26T06:12:49,2420,42.8014,5.9826,13.2975,4.59909,2453.649,38.4874
2023-09-26T06:15:49,2420,42.8014,5.9826,13.2973,4.59918,2453.672,38.4884
2023-09-26T06:18:49,2420,42.8014,5.9826,13.2975,4.59906,2453.687,38.4871
2023-09-26T06:21:49,2420,42.8014,5.9826,13.2974,4.59908,2453.672,38.4873
2023-09-26T06:24:49,2420,42.8014,5.9826,13.2973,4.59906,2453.649,38.4873
2023-09-26T06:27:49,2420,42.8014,5.9826,13.2972,4.59901,2453.649,38.4869
2023-09-26T06:30:49,2420,42.8014,5.9826,13.2969,4.59904,2453.672,38.4875
2023-09-26T06:33:49,2420,42.8014,5.9826,13.2973,4.59916,2453.649,38.4882
2023-09-26T06:36:49,2420,42.8014,5.9826,13.2975,4.59904,2453.672,38.4869
2023-09-26T06:39:49,2420,42.8014,5.9826,13.2971,4.59895,2453.687,38.4864
2023-09-26T06:42:49,2420,42.8014,5.9826,13.2975,4.59905,2453.649,38.4870
2023-09-26T06:45:49,2420,42.8014,5.9826,13.2973,4.59907,2453.672,38.4873
2023-09-26T06:48:49,2420,42.8014,5.9826,13.2972,4.59914,2453.672,38.4881
2023-09-26T06:51:49,2420,42.8014,5.9826,13.2970,4.59904,2453.635,38.4874
2023-09-26T06:54:49,2420,42.8014,5.9826,13.2970,4.59905,2453.635,38.4874
2023-09-26T06:57:49,2420,42.8014,5.9826,13.2970,4.59901,2453.635,38.4871
2023-09-26T07:00:49,2420,42.8014,5.9826,13.2973,4.59898,2453.649,38.4866
2023-09-26T07:03:49,2420,42.8014,5.9826,13.2973,4.59900,2453.649,38.4868
2023-09-26T07:06:49,2420,42.8014,5.9826,13.2971,4.59903,2453.649,38.4871
2023-09-26T07:09:49,2420,42.8014,5.9826,13.2973,4.59899,2453.649,38.4866
2023-09-26T07:12:49,2420,42.8014,5.9826,13.2968,4.59895,2453.680,38.4867
2023-09-26T07:15:49,2420,42.8014,5.9826,13.2968,4.59895,2453.649,38.4867
2023-09-26T07:18:49,2420,42.8014,5.9826,13.2972,4.59904,2453.627,38.4872
2023-09-26T07:21:49,2420,42.8014,5.9826,13.2970,4.59897,2453.649,38.4867
2023-09-26T07:24:49,2420,42.8014,5.9826,13.2975,4.59903,2453.627,38.4869
2023-09-26T07:27:49,2420,42.8014,5.9826,13.2972,4.59899,2453.649,38.4867
2023-09-26T07:30:49,2420,42.8014,5.9826,13.2968,4.59900,2453.627,38.4872
2023-09-26T07:33:49,2420,42.8014,5.9826,13.2970,4.59891,2453.649,38.4861
2023-09-26T07:36:49,2420,42.8014,5.9826,13.2972,4.59909,2453.649,38.4876
2023-09-26T07:39:49,2420,42.8014,5.9826,13.2970,4.59902,2453.627,38.4872
2023-09-26T07:42:49,2420,42.8014,5.9826,13.2968,4.59900,2453.627,38.4871
2023-09-26T07:45:49,2420,42.8014,5.9826,13.2970,4.59905,2453.627,38.4875
2023-09-26T07:48:49,2420,42.8014,5.9826,13.2968,4.59895,2453.641,38.4867
2023-09-26T07:51:49,2420,42.8014,5.9826,13.2973,4.59905,2453.649,38.4872
2023-09-26T07:54:49,2420,42.8014,5.9826,13.2968,4.59896,2453.641,38.4868
2023-09-26T07:57:49,2420,42.8014,5.9826,13.2973,4.59897,2453.627,38.4864
2023-09-26T08:00:49,2420,42.8014,5.9826,13.2973,4.59897,2453.582,38.4864
2023-09-26T08:03:49,2420,42.8014,5.9826,13.2971,4.59900,2453.627,38.4869
2023-09-26T08:06:49,2420,42.8014,5.9826,13.2970,4.59903,2453.604,38.4873
2023-09-26T08:09:49,2420,42.8014,5.9826,13.2973,4.59891,2453.604,38.4858
2023-09-26T08:12:49,2420,42.8014,5.9826,13.2966,4.59900,2453.604,38.4874
2023-09-26T08:15:49,2420,42.8014,5.9826,13.2970,4.59895,2453.619,38.4866
2023-09-26T08:18:49,2420,42.8014,5.9826,13.2971,4.59900,2453.627,38.4869
2023-09-26T08:21:49,2420,42.8014,5.9826,13.2968,4.59894,2453.604,38.4866
2023-09-26T08:24:49,2420,42.8014,5.9826,13.2971,4.59906,2453.604,38.4874
2023-09-26T08:27:49,2420,42.8014,5.9826,13.2973,4.59895,2453.627,38.4863
2023-09-26T08:30:49,2420,42.8014,5.9826,13.2971,4.59895,2453.582,38.4865
2023-09-26T08:33:49,2420,42.8014,5.9826,13.2972,4.59896,2453.604,38.4865
2023-09-26T08:36:49,2420,42.8014,5.9826,13.2970,4.59900,2453.604,38.4870
2023-09-26T08:39:49,2420,42.8014,5.9826,13.2966,4.59898,2453.582,38.4872
2023-09-26T08:42:49,2420,42.8014,5.9826,13.2971,4.59904,2453.604,38.4873
2023-09-26T08:45:49,2420,42.8014,5.9826,13.2971,4.59906,2453.604,38.4875
2023-09-26T08:48:49,2420,42.8014,5.9826,13.2969,4.59906,2453.590,38.4877
2023-09-26T08:51:49,2420,42.8014,5.9826,13.2974,4.59914,2453.582,38.4880
2023-09-26T08:54:49,2420,42.8014,5.9826,13.2973,4.59918,2453.604,38.4885
2023-09-26T08:57:49,2420,42.8014,5.9826,13.2970,4.59925,2453.604,38.4894
2023-09-26T09:00:50,2420,42.8014,5.9826,13.2968,4.59910,2453.582,38.4881
2023-09-26T09:03:49,2420,42.8014,5.9826,13.2973,4.59914,2453.582,38.4881
2023-09-26T09:06:49,2420,42.8014,5.9826,13.2971,4.60026,2453.567,38.4988
2023-09-26T09:09:49,2420,42.8014,5.9826,13.2969,4.59931,2453.559,38.4901
2023-09-26T09:12:49,2420,42.8014,5.9826,13.2973,4.59940,2453.596,38.4905
2023-09-26T09:15:49,2420,42.8014,5.9826,13.2971,4.59917,2453.559,38.4885
2023-09-26T09:18:49,2420,42.8014,5.9826,13.2973,4.59917,2453.582,38.4883
2023-09-26T09:21:49,2420,42.8014,5.9826,13.2970,4.59918,2453.537,38.4887
2023-09-26T09:24:49,2420,42.8014,5.9826,13.2970,4.59989,2453.559,38.4955
2023-09-26T09:27:49,2420,42.8014,5.9826,13.2976,4.59965,2453.559,38.4925
2023-09-26T09:30:49,2420,42.8014,5.9826,13.2970,4.59936,2453.582,38.4904
2023-09-26T09:33:49,2420,42.8014,5.9826,13.2978,4.59959,2453.559,38.4918
2023-09-26T09:36:49,2420,42.8014,5.9826,13.2972,4.59927,2453.544,38.4894
2023-09-26T09:39:49,2420,42.8014,5.9826,13.2974,4.59926,2453.551,38.4891
2023-09-26T09:42:49,2420,42.8014,5.9826,13.2972,4.59917,2453.582,38.4885
2023-09-26T09:45:49,2420,42.8014,5.9826,13.2972,4.59957,2453.559,38.4923
2023-09-26T09:48:49,2420,42.8014,5.9826,13.2970,4.59941,2453.582,38.4909
2023-09-26T09:51:49,2420,42.8014,5.9826,13.2970,4.59911,2453.567,38.4881
2023-09-26T09:54:49,2420,42.8014,5.9826,13.2970,4.59910,2453.559,38.4880
2023-09-26T09:57:49,2420,42.8014,5.9826,13.2974,4.59928,2453.590,38.4893
2023-09-26T10:00:49,2420,42.8014,5.9826,13.2971,4.59922,2453.544,38.4890
2023-09-26T10:03:49,2420,42.8014,5.9826,13.2975,4.59937,2453.604,38.4900
2023-09-26T10:06:49,2420,42.8014,5.9826,13.2972,4.59923,2453.559,38.4891
2023-09-26T10:09:49,2420,42.8014,5.9826,13.2970,4.60102,2453.559,38.5062
2023-09-26T10:12:49,2420,42.8014,5.9826,13.2973,4.59930,2453.559,38.4895
2023-09-26T10:15:49,2420,42.8014,5.9826,13.2973,4.59946,2453.559,38.4910
2023-09-26T10:18:49,2420,42.8014,5.9826,13.2973,4.59944,2453.596,38.4909
2023-09-26T10:21:49,2420,42.8014,5.9826,13.2978,4.59931,2453.582,38.4892
2023-09-26T10:24:49,2420,42.8014,5.9826,13.2973,4.59931,2453.559,38.4897
2023-09-26T10:27:49,2420,42.8014,5.9826,13.2979,4.59939,2453.559,38.4898
2023-09-26T10:30:49,2420,42.8014,5.9826,13.2972,4.59920,2453.544,38.4888
2023-09-26T10:33:49,2420,42.8014,5.9826,13.2969,4.59980,2453.582,38.4947
2023-09-26T10:36:49,2420,42.8014,5.9826,13.2977,4.59928,2453.567,38.4891
2023-09-26T10:39:49,2420,42.8014,5.9826,13.2971,4.59958,2453.582,38.4924
2023-09-26T10:42:49,2420,42.8014,5.9826,13.2969,4.59929,2453.559,38.4899
2023-09-26T10:45:49,2420,42.8014,5.9826,13.2974,4.59934,2453.537,38.4898
2023-09-26T10:48:49,2420,42.8014,5.9826,13.2972,4.59946,2453.574,38.4912
2023-09-26T10:51:49,2420,42.8014,5.9826,13.2975,4.59951,2453.559,38.4914
2023-09-26T10:54:49,2420,42.8014,5.9826,13.2977,4.59937,2453.559,38.4898
2023-09-26T10:57:49,2420,42.8014,5.9826,13.2975,4.59965,2453.537,38.4928
2023-09-26T11:00:49,2420,42.8014,5.9826,13.2969,4.59931,2453.567,38.4900
2023-09-26T11:03:49,2420,42.8014,5.9826,13.2969,4.59924,2453.544,38.4894
2023-09-26T11:06:49,2420,42.8014,5.9826,13.2976,4.59954,2453.522,38.4915
2023-09-26T11:09:49,2420,42.8014,5.9826,13.2975,4.59944,2453.559,38.4907
2023-09-26T11:12:49,2420,42.8014,5.9826,13.2973,4.59940,2453.567,38.4905
2023-09-26T11:15:49,2420,42.8014,5.9826,13.2970,4.59938,2453.559,38.4907
2023-09-26T11:18:49,2420,42.8014,5.9826,13.2968,4.59942,2453.574,38.4911
2023-09-26T11:21:49,2420,42.8014,5.9826,13.2971,4.59948,2453.559,38.4914
2023-09-26T11:24:49,2420,42.8014,5.9826,13.2972,4.59936,2453.574,38.4902
2023-09-26T11:27:49,2420,42.8014,5.9826,13.2986,4.60005,2453.574,38.4953
2023-09-26T11:30:49,2420,42.8014,5.9826,13.2973,4.59943,2453.559,38.4908
2023-09-26T11:33:49,2420,42.8014,5.9826,13.2970,4.59932,2453.582,38.4901
2023-09-26T11:36:49,2420,42.8014,5.9826,13.2969,4.59940,2453.596,38.4909
2023-09-26T11:39:49,2420,42.8014,5.9826,13.2968,4.59914,2453.559,38.4886
2023-09-26T11:42:49,2420,42.8014,5.9826,13.2970,4.59926,2453.604,38.4895
2023-09-26T11:45:49,2420,42.8014,5.9826,13.2970,4.59922,2453.567,38.4891
2023-09-26T11:48:49,2420,42.8014,5.9826,13.2973,4.59916,2453.559,38.4883
2023-09-26T11:51:49,2420,42.8014,5.9826,13.2967,4.59915,2453.559,38.4888
2023-09-26T11:54:49,2420,42.8014,5.9826,13.2970,4.59924,2453.596,38.4893
2023-09-26T11:57:49,2420,42.8014,5.9826,13.2966,4.59922,2453.582,38.4895
2023-09-26T12:00:50,2420,42.8014,5.9826,13.2968,4.59926,2453.582,38.4896
2023-09-26T12:03:49,2420,42.8014,5.9826,13.2969,4.59932,2453.544,38.4902
2023-09-26T12:06:49,2420,42.8014,5.9826,13.2967,4.59968,2453.582,38.4937
2023-09-26T12:09:49,2420,42.8014,5.9826,13.2973,4.59980,2453.574,38.4943
2023-09-26T12:12:49,2420,42.8014,5.9826,13.2978,4.59945,2453.582,38.4905
2023-09-26T12:15:49,2420,42.8014,5.9826,13.2970,4.59918,2453.582,38.4887
2023-09-26T12:18:49,2420,42.8014,5.9826,13.2970,4.59916,2453.567,38.4885
2023-09-26T12:21:49,2420,42.8014,5.9826,13.2986,4.59914,2453.596,38.4868
2023-09-26T12:24:49,2420,42.8014,5.9826,13.2970,4.59916,2453.604,38.4885
2023-09-26T12:27:49,2420,42.8014,5.9826,13.2970,4.59913,2453.582,38.4882
2023-09-26T12:30:49,2420,42.8014,5.9826,13.2972,4.59902,2453.582,38.4870
2023-09-26T12:33:49,2420,42.8014,5.9826,13.2968,4.59917,2453.582,38.4889
2023-09-26T12:36:49,2420,42.8014,5.9826,13.2973,4.59926,2453.582,38.4892
2023-09-26T12:39:49,2420,42.8014,5.9826,13.2970,4.59936,2453.604,38.4904
2023-09-26T12:42:49,2420,42.8014,5.9826,13.2968,4.59918,2453.567,38.4890
2023-09-26T12:45:49,2420,42.8014,5.9826,13.2972,4.59938,2453.582,38.4904
2023-09-26T12:48:49,2420,42.8014,5.9826,13.2968,4.59913,2453.604,38.4885
2023-09-26T12:51:49,2420,42.8014,5.9826,13.2968,4.59937,2453.590,38.4906
2023-09-26T12:54:49,2420,42.8014,5.9826,13.2967,4.59947,2453.582,38.4918
2023-09-26T12:57:49,2420,42.8014,5.9826,13.2975,4.59992,2453.582,38.4953
2023-09-26T13:00:49,2420,42.8014,5.9826,13.2967,4.59920,2453.604,38.4892
2023-09-26T13:03:49,2420,42.8014,5.9826,13.2982,4.59923,2453.582,38.4881
2023-09-26T13:06:49,2420,42.8014,5.9826,13.2972,4.59937,2453.582,38.4903
2023-09-26T13:09:49,2420,42.8014,5.9826,13.2968,4.59948,2453.604,38.4917
2023-09-26T13:12:49,2420,42.8014,5.9826,13.2973,4.59931,2453.604,38.4897
2023-09-26T13:15:49,2420,42.8014,5.9826,13.2973,4.59951,2453.567,38.4916
2023-09-26T13:18:49,2420,42.8014,5.9826,13.2966,4.59921,2453.627,38.4894
2023-09-26T13:21:49,2420,42.8014,5.9826,13.2970,4.59931,2453.604,38.4900
2023-09-26T13:24:49,2420,42.8014,5.9826,13.2970,4.59923,2453.627,38.4892
2023-09-26T13:27:50,2420,42.8014,5.9826,13.2973,4.59922,2453.604,38.4888
2023-09-26T13:30:49,2420,42.8014,5.9826,13.2970,4.59936,2453.627,38.4904
2023-09-26T13:33:49,2420,42.8014,5.9826,13.2973,4.59994,2453.641,38.4955
2023-09-26T13:36:49,2420,42.8014,5.9826,13.2973,4.59983,2453.641,38.4945
2023-09-26T13:39:49,2420,42.8014,5.9826,13.2967,4.59973,2453.627,38.4942
2023-09-26T13:42:49,2420,42.8014,5.9826,13.2967,4.59937,2453.649,38.4908
2023-09-26T13:45:49,2420,42.8014,5.9826,13.2969,4.59948,2453.649,38.4916
2023-09-26T13:48:49,2420,42.8014,5.9826,13.2976,4.59954,2453.627,38.4915
2023-09-26T13:51:49,2420,42.8014,5.9826,13.2968,4.59941,2453.627,38.4910
2023-09-26T13:54:49,2420,42.8014,5.9826,13.2968,4.59947,2453.672,38.4916
2023-09-26T13:57:49,2420,42.8014,5.9826,13.2975,4.59943,2453.627,38.4906
2023-09-26T14:00:49,2420,42.8014,5.9826,13.2975,4.59951,2453.672,38.4913
2023-09-26T14:03:49,2420,42.8014,5.9826,13.2970,4.59937,2453.641,38.4905
2023-09-26T14:06:49,2420,42.8014,5.9826,13.2969,4.60101,2453.649,38.5060
2023-09-26T14:09:49,2420,42.8014,5.9826,13.2968,4.60113,2453.672,38.5073
2023-09-26T14:12:49,2420,42.8014,5.9826,13.2969,4.59985,2453.672,38.4952
2023-09-26T14:15:49,2420,42.8014,5.9826,13.2980,4.60287,2453.672,38.5225
2023-09-26T14:18:49,2420,42.8014,5.9826,13.2969,4.60081,2453.672,38.5042
2023-09-26T14:21:49,2420,42.8014,5.9826,13.3006,4.60178,2453.649,38.5096
2023-09-26T14:24:49,2420,42.8014,5.9826,13.2966,4.60067,2453.687,38.5032
2023-09-26T14:27:49,2420,42.8014,5.9826,13.2970,4.60015,2453.695,38.4978
2023-09-26T14:30:50,2420,42.8014,5.9826,13.2972,4.59941,2453.649,38.4907
2023-09-26T14:33:49,2420,42.8014,5.9826,13.2969,4.60171,2453.672,38.5127
2023-09-26T14:36:49,2420,42.8014,5.9826,13.2971,4.60344,2453.709,38.5288
2023-09-26T14:39:49,2420,42.8014,5.9826,13.2973,4.60111,2453.732,38.5066
2023-09-26T14:42:49,2420,42.8014,5.9826,13.2974,4.60405,2453.695,38.5343
2023-09-26T14:45:49,2420,42.8014,5.9826,13.2976,4.60069,2453.695,38.5023
2023-09-26T14:48:49,2420,42.8014,5.9826,13.2973,4.60138,2453.695,38.5092
2023-09-26T14:51:49,2420,42.8014,5.9826,13.2978,4.60358,2453.717,38.5295
2023-09-26T14:54:49,2420,42.8014,5.9826,13.2979,4.60196,2453.695,38.5141
2023-09-26T14:57:49,2420,42.8014,5.9826,13.2974,4.60212,2453.695,38.5161
2023-09-26T15:00:49,2420,42.8014,5.9826,13.2970,4.60204,2453.695,38.5158
2023-09-26T15:03:49,2420,42.8014,5.9826,13.2971,4.60106,2453.717,38.5063
2023-09-26T15:06:49,2420,42.8014,5.9826,13.2968,4.60222,2453.695,38.5176
2023-09-26T15:09:49,2420,42.8014,5.9826,13.3080,4.60114,2453.695,38.4963
2023-09-26T15:12:49,2420,42.8014,5.9826,13.3032,4.60002,2453.709,38.4905
2023-09-26T15:15:49,2420,42.8014,5.9826,13.3727,4.60078,2453.732,38.4287
2023-09-26T15:18:49,2420,42.8014,5.9826,13.2978,4.60156,2453.754,38.5103
2023-09-26T15:21:49,2420,42.8014,5.9826,13.4220,4.60148,2453.695,38.3865
2023-09-26T15:24:49,2420,42.8014,5.9826,13.3368,4.60234,2453.732,38.4790
2023-09-26T15:27:49,2420,42.8014,5.9826,13.3029,4.60148,2453.695,38.5046
2023-09-26T15:30:49,2420,42.8014,5.9826,13.3038,4.60041,2453.732,38.4935
2023-09-26T15:33:49,2420,42.8014,5.9826,13.3002,4.60039,2453.754,38.4970
2023-09-26T15:36:49,2420,42.8014,5.9826,13.3055,4.60109,2453.732,38.4982
2023-09-26T15:39:49,2420,42.8014,5.9826,13.3605,4.60047,2453.740,38.4380
2023-09-26T15:42:49,2420,42.8014,5.9826,13.3128,4.60013,2453.695,38.4819
2023-09-26T15:45:49,2420,42.8014,5.9826,13.3563,4.59994,2453.717,38.4371
2023-09-26T15:48:49,2420,42.8014,5.9826,13.3102,4.60103,2453.717,38.4931
2023-09-26T15:51:49,2420,42.8014,5.9826,13.2988,4.60544,2453.754,38.5460
2023-09-26T15:54:49,2420,42.8014,5.9826,13.3021,4.60025,2453.740,38.4937
2023-09-26T15:57:49,2420,42.8014,5.9826,13.3030,4.60019,2453.754,38.4922
2023-09-26T16:00:50,2420,42.8014,5.9826,13.3004,4.59982,2453.762,38.4913
2023-09-26T16:03:49,2420,42.8014,5.9826,13.2999,4.60242,2453.740,38.5164